| time (UTC) | temp F | wind direction | speed MPH | gust MPH | rain 1hr in | rain 24hr in | rain mn in | humidity % | barometer mb |
| 20260905184225 | 92 | 259 | 7.0 | 11.0 | 0.00 | 0.00 | 0.00 | 65 | 1011.9 |
| 20260905183723 | 92 | 249 | 5.0 | 9.0 | 0.00 | 0.00 | 0.00 | 65 | 1011.7 |
| 20260905183221 | 92 | 0.0 | 0.0 | 0.00 | 0.00 | 0.00 | 66 | 1011.6 | |
| 20260905182718 | 92 | 264 | 3.0 | 10.0 | 0.00 | 0.00 | 0.00 | 65 | 1011.8 |
| 20260905182216 | 92 | 257 | 2.0 | 9.0 | 0.00 | 0.00 | 0.00 | 62 | 1011.8 |
| 20260905181724 | 92 | 321 | 3.0 | 8.0 | 0.00 | 0.00 | 0.00 | 65 | 1011.8 |
| 20260905181222 | 92 | 271 | 2.0 | 8.0 | 0.00 | 0.00 | 0.00 | 65 | 1012.0 |
| 20260905180720 | 92 | 0.0 | 0.0 | 0.00 | 0.00 | 0.00 | 67 | 1011.9 | |
| 20260905180218 | 92 | 0.0 | 0.0 | 0.00 | 0.00 | 0.00 | 66 | 1012.0 | |
| 20260905175715 | 92 | 290 | 3.0 | 7.0 | 0.00 | 0.00 | 0.00 | 65 | 1012.0 |
| 20260905175224 | 92 | 0.0 | 0.0 | 0.00 | 0.00 | 0.00 | 65 | 1012.1 | |
| 20260905174721 | 92 | 250 | 2.0 | 6.0 | 0.00 | 0.00 | 0.00 | 68 | 1012.0 |
| 20260905174219 | 92 | 278 | 1.0 | 6.0 | 0.00 | 0.00 | 0.00 | 66 | 1012.1 |
| 20260905173717 | 92 | 244 | 4.0 | 8.0 | 0.00 | 0.00 | 0.00 | 64 | 1012.0 |
| 20260905173224 | 92 | 278 | 2.0 | 8.0 | 0.00 | 0.00 | 0.00 | 67 | 1012.0 |
| 20260905172722 | 92 | 271 | 2.0 | 7.0 | 0.00 | 0.00 | 0.00 | 67 | 1012.2 |
| 20260905172220 | 92 | 319 | 0.0 | 4.0 | 0.00 | 0.00 | 0.00 | 66 | 1012.3 |
| 20260905171718 | 91 | 284 | 2.0 | 6.0 | 0.00 | 0.00 | 0.00 | 67 | 1012.4 |
| 20260905171215 | 91 | 0.0 | 0.0 | 0.00 | 0.00 | 0.00 | 67 | 1012.4 | |
| 20260905170724 | 91 | 0.0 | 0.0 | 0.00 | 0.00 | 0.00 | 66 | 1012.6 | |
| 20260905170221 | 91 | 278 | 4.0 | 9.0 | 0.00 | 0.00 | 0.00 | 66 | 1012.9 |
| 20260905165719 | 91 | 0.0 | 0.0 | 0.00 | 0.00 | 0.00 | 67 | 1012.7 | |
| 20260905165217 | 91 | 242 | 4.0 | 8.0 | 0.00 | 0.00 | 0.00 | 69 | 1012.8 |
| 20260905164725 | 91 | 0.0 | 0.0 | 0.00 | 0.00 | 0.00 | 68 | 1012.8 | |
| 20260905164223 | 91 | 277 | 1.0 | 3.0 | 0.00 | 0.00 | 0.00 | 67 | 1012.9 |
| 20260905163720 | 91 | 0.0 | 0.0 | 0.00 | 0.00 | 0.00 | 67 | 1012.9 | |
| 20260905163339 | 91 | 272 | 2.0 | 6.0 | 0.00 | 0.00 | 0.00 | 66 | 1013.0 |
| 20260905162716 | 91 | 279 | 2.0 | 6.0 | 0.00 | 0.00 | 0.00 | 68 | 1013.0 |
| 20260905162224 | 90 | 0.0 | 0.0 | 0.00 | 0.00 | 0.00 | 71 | 1013.1 | |
| 20260905161722 | 90 | 0.0 | 0.0 | 0.00 | 0.00 | 0.00 | 70 | 1013.0 | |
| 20260905161220 | 90 | 241 | 4.0 | 7.0 | 0.00 | 0.00 | 0.00 | 70 | 1013.2 |
| 20260905160717 | 90 | 262 | 1.0 | 3.0 | 0.00 | 0.00 | 0.00 | 69 | 1013.2 |
| 20260905160215 | 90 | 250 | 2.0 | 6.0 | 0.00 | 0.00 | 0.00 | 73 | 1013.4 |
| 20260905155743 | 90 | 239 | 6.0 | 13.0 | 0.00 | 0.00 | 0.00 | 70 | 1013.4 |
| 20260905155241 | 90 | 248 | 1.0 | 3.0 | 0.00 | 0.00 | 0.00 | 71 | 1013.3 |
| 20260905154719 | 89 | 0.0 | 0.0 | 0.00 | 0.00 | 0.00 | 71 | 1013.2 | |
| 20260905154257 | 89 | 232 | 2.0 | 8.0 | 0.00 | 0.00 | 0.00 | 71 | 1013.2 |
| 20260905153724 | 89 | 292 | 0.0 | 3.0 | 0.00 | 0.00 | 0.00 | 71 | 1013.4 |
| 20260905153222 | 89 | 277 | 1.0 | 6.0 | 0.00 | 0.00 | 0.00 | 74 | 1013.3 |
| 20260905152719 | 89 | 0.0 | 0.0 | 0.00 | 0.00 | 0.00 | 73 | 1013.3 | |
| 20260905152237 | 89 | 242 | 4.0 | 9.0 | 0.00 | 0.00 | 0.00 | 74 | 1013.2 |
| 20260905151725 | 89 | 0.0 | 0.0 | 0.00 | 0.00 | 0.00 | 77 | 1013.4 | |
| 20260905151223 | 89 | 0.0 | 0.0 | 0.00 | 0.00 | 0.00 | 77 | 1013.6 | |
| 20260905150741 | 89 | 0.0 | 0.0 | 0.00 | 0.00 | 0.00 | 77 | 1013.5 | |
| 20260905150218 | 89 | 263 | 1.0 | 6.0 | 0.00 | 0.00 | 0.00 | 75 | 1013.3 |
| 20260905145716 | 89 | 0.0 | 0.0 | 0.00 | 0.00 | 0.00 | 77 | 1013.2 | |
| 20260905145224 | 89 | 0.0 | 0.0 | 0.00 | 0.01 | 0.00 | 77 | 1013.4 | |
| 20260905144722 | 88 | 0.0 | 0.0 | 0.00 | 0.01 | 0.00 | 78 | 1013.2 | |
| 20260905144219 | 88 | 0.0 | 0.0 | 0.00 | 0.01 | 0.00 | 81 | 1013.2 | |
| 20260905143717 | 88 | 0.0 | 0.0 | 0.00 | 0.01 | 0.00 | 81 | 1013.2 | |
| 20260905143245 | 87 | 0.0 | 0.0 | 0.00 | 0.01 | 0.00 | 80 | 1013.3 | |
| 20260905142803 | 87 | 0.0 | 0.0 | 0.00 | 0.01 | 0.00 | 82 | 1013.3 | |
| 20260905142240 | 86 | 0.0 | 0.0 | 0.00 | 0.01 | 0.00 | 81 | 1013.2 | |
| 20260905141718 | 86 | 0.0 | 0.0 | 0.00 | 0.01 | 0.00 | 81 | 1013.2 | |
| 20260905141216 | 86 | 0.0 | 0.0 | 0.00 | 0.01 | 0.00 | 83 | 1013.0 | |
| 20260905140723 | 86 | 0.0 | 0.0 | 0.00 | 0.01 | 0.00 | 83 | 1013.0 | |
| 20260905140221 | 85 | 0.0 | 0.0 | 0.00 | 0.01 | 0.00 | 84 | 1013.3 | |
| 20260905135719 | 85 | 0.0 | 0.0 | 0.00 | 0.01 | 0.00 | 84 | 1013.2 | |
| 20260905135217 | 85 | 261 | 0.0 | 3.0 | 0.00 | 0.01 | 0.00 | 84 | 1013.1 |
| 20260905134724 | 85 | 0.0 | 0.0 | 0.00 | 0.01 | 0.00 | 86 | 1013.1 | |
| 20260905134222 | 85 | 0.0 | 0.0 | 0.00 | 0.01 | 0.00 | 87 | 1013.2 | |
| 20260905133741 | 85 | 0.0 | 0.0 | 0.00 | 0.01 | 0.00 | 87 | 1013.1 | |
| 20260905133238 | 85 | 0.0 | 0.0 | 0.00 | 0.01 | 0.00 | 88 | 1013.2 | |
| 20260905132716 | 84 | 0.0 | 0.0 | 0.00 | 0.01 | 0.00 | 88 | 1013.3 | |
| 20260905132224 | 84 | 0.0 | 0.0 | 0.00 | 0.01 | 0.00 | 88 | 1013.1 | |
| 20260905131744 | 84 | 121 | 0.0 | 3.0 | 0.00 | 0.01 | 0.00 | 89 | 1013.3 |
| 20260905131239 | 83 | 0.0 | 0.0 | 0.00 | 0.01 | 0.00 | 90 | 1013.2 | |
| 20260905130737 | 83 | 166 | 0.0 | 1.0 | 0.00 | 0.01 | 0.00 | 90 | 1013.2 |
| 20260905130225 | 83 | 0.0 | 0.0 | 0.00 | 0.01 | 0.00 | 90 | 1013.3 | |
| 20260905125743 | 83 | 0.0 | 0.0 | 0.00 | 0.01 | 0.00 | 92 | 1013.1 | |
| 20260905125221 | 82 | 0.0 | 0.0 | 0.00 | 0.01 | 0.00 | 92 | 1013.1 | |
| 20260905124719 | 82 | 0.0 | 0.0 | 0.00 | 0.01 | 0.00 | 92 | 1013.1 | |
| 20260905124216 | 82 | 0.0 | 0.0 | 0.00 | 0.01 | 0.00 | 93 | 1013.0 | |
| 20260905123724 | 82 | 0.0 | 0.0 | 0.00 | 0.01 | 0.00 | 93 | 1013.0 | |
| 20260905123222 | 81 | 0.0 | 0.0 | 0.00 | 0.01 | 0.00 | 93 | 1013.0 | |
| 20260905122719 | 81 | 0.0 | 0.0 | 0.00 | 0.01 | 0.00 | 93 | 1013.2 | |
| 20260905122217 | 81 | 0.0 | 0.0 | 0.00 | 0.01 | 0.00 | 94 | 1013.2 | |
| 20260905121725 | 81 | 0.0 | 0.0 | 0.00 | 0.01 | 0.00 | 94 | 1013.2 | |
| 20260905121243 | 81 | 0.0 | 0.0 | 0.00 | 0.01 | 0.00 | 94 | 1013.1 | |
| 20260905120720 | 80 | 0.0 | 0.0 | 0.00 | 0.01 | 0.00 | 95 | 1013.3 | |
| 20260905120258 | 80 | 0.0 | 0.0 | 0.00 | 0.01 | 0.00 | 95 | 1013.1 | |
| 20260905115718 | 80 | 0.0 | 0.0 | 0.00 | 0.01 | 0.00 | 95 | 1013.2 | |
| 20260905115244 | 79 | 0.0 | 0.0 | 0.00 | 0.01 | 0.00 | 95 | 1013.1 | |
| 20260905114722 | 79 | 0.0 | 0.0 | 0.00 | 0.01 | 0.00 | 95 | 1013.1 | |
| 20260905114219 | 79 | 0.0 | 0.0 | 0.00 | 0.01 | 0.00 | 95 | 1012.9 | |
| 20260905113717 | 79 | 0.0 | 0.0 | 0.00 | 0.01 | 0.00 | 95 | 1012.7 | |
| 20260905113225 | 78 | 0.0 | 0.0 | 0.00 | 0.01 | 0.00 | 95 | 1012.8 | |
| 20260905112723 | 78 | 0.0 | 0.0 | 0.00 | 0.01 | 0.00 | 95 | 1012.7 | |
| 20260905112221 | 77 | 0.0 | 0.0 | 0.00 | 0.01 | 0.00 | 94 | 1012.7 | |
| 20260905111718 | 77 | 0.0 | 0.0 | 0.00 | 0.01 | 0.00 | 94 | 1012.8 | |
| 20260905111216 | 77 | 0.0 | 0.0 | 0.00 | 0.01 | 0.00 | 94 | 1012.8 | |
| 20260905110724 | 77 | 0.0 | 0.0 | 0.00 | 0.01 | 0.00 | 94 | 1012.7 | |
| 20260905110222 | 77 | 0.0 | 0.0 | 0.00 | 0.01 | 0.00 | 94 | 1012.6 | |
| 20260905105720 | 77 | 0.0 | 0.0 | 0.00 | 0.01 | 0.00 | 94 | 1012.5 | |
| 20260905105237 | 77 | 0.0 | 0.0 | 0.00 | 0.01 | 0.00 | 94 | 1012.6 | |
| 20260905104805 | 77 | 0.0 | 0.0 | 0.00 | 0.01 | 0.00 | 94 | 1012.7 | |
| 20260905104243 | 77 | 0.0 | 0.0 | 0.00 | 0.01 | 0.00 | 94 | 1012.6 | |
| 20260905103720 | 78 | 0.0 | 0.0 | 0.00 | 0.01 | 0.00 | 94 | 1012.5 | |
| 20260905103218 | 78 | 0.0 | 0.0 | 0.00 | 0.01 | 0.00 | 94 | 1012.5 | |
| 20260905102736 | 78 | 0.0 | 0.0 | 0.00 | 0.01 | 0.00 | 94 | 1012.3 | |
| 20260905102224 | 78 | 0.0 | 0.0 | 0.00 | 0.01 | 0.00 | 94 | 1012.3 | |
| 20260905101742 | 78 | 0.0 | 0.0 | 0.00 | 0.01 | 0.00 | 94 | 1012.4 | |
| 20260905101219 | 78 | 0.0 | 0.0 | 0.00 | 0.01 | 0.00 | 94 | 1012.4 | |
| 20260905100717 | 78 | 0.0 | 0.0 | 0.00 | 0.01 | 0.00 | 94 | 1012.4 | |
| 20260905100225 | 78 | 0.0 | 0.0 | 0.00 | 0.01 | 0.00 | 93 | 1012.3 | |
| 20260905095723 | 78 | 0.0 | 0.0 | 0.00 | 0.01 | 0.00 | 93 | 1012.3 | |
| 20260905095305 | 78 | 0.0 | 0.0 | 0.00 | 0.01 | 0.00 | 93 | 1012.2 | |
| 20260905094720 | 78 | 0.0 | 0.0 | 0.00 | 0.01 | 0.00 | 93 | 1012.1 | |
| 20260905094216 | 78 | 0.0 | 0.0 | 0.00 | 0.01 | 0.00 | 93 | 1012.1 | |
| 20260905093744 | 78 | 0.0 | 0.0 | 0.00 | 0.01 | 0.00 | 93 | 1012.2 | |
| 20260905093221 | 78 | 0.0 | 0.0 | 0.00 | 0.01 | 0.00 | 93 | 1012.1 | |
| 20260905092719 | 78 | 0.0 | 0.0 | 0.00 | 0.01 | 0.00 | 93 | 1012.1 | |
| 20260905092220 | 78 | 0.0 | 0.0 | 0.00 | 0.01 | 0.00 | 93 | 1012.2 | |
| 20260905091725 | 78 | 0.0 | 0.0 | 0.00 | 0.01 | 0.00 | 93 | 1012.2 | |
| 20260905091242 | 78 | 0.0 | 0.0 | 0.00 | 0.01 | 0.00 | 92 | 1012.2 | |
| 20260905090720 | 78 | 0.0 | 0.0 | 0.00 | 0.01 | 0.00 | 93 | 1012.2 | |
| 20260905090218 | 78 | 0.0 | 0.0 | 0.00 | 0.01 | 0.00 | 93 | 1012.2 | |
| 20260905085717 | 78 | 0.0 | 0.0 | 0.00 | 0.01 | 0.00 | 93 | 1012.2 | |
| 20260905085223 | 78 | 0.0 | 0.0 | 0.00 | 0.01 | 0.00 | 92 | 1012.2 | |
| 20260905084741 | 78 | 0.0 | 0.0 | 0.00 | 0.01 | 0.00 | 92 | 1012.1 | |
| 20260905084219 | 78 | 0.0 | 0.0 | 0.00 | 0.01 | 0.00 | 92 | 1012.0 | |
| 20260905083716 | 78 | 0.0 | 0.0 | 0.00 | 0.01 | 0.00 | 92 | 1011.9 | |
| 20260905083224 | 78 | 0.0 | 0.0 | 0.00 | 0.01 | 0.00 | 92 | 1012.1 | |
| 20260905082722 | 78 | 0.0 | 0.0 | 0.00 | 0.01 | 0.00 | 92 | 1012.0 | |
| 20260905082220 | 78 | 182 | 0.0 | 2.0 | 0.00 | 0.01 | 0.00 | 91 | 1012.0 |
| 20260905081719 | 78 | 0.0 | 0.0 | 0.00 | 0.01 | 0.00 | 91 | 1012.0 | |
| 20260905081225 | 78 | 0.0 | 0.0 | 0.00 | 0.01 | 0.00 | 91 | 1012.2 | |
| 20260905080721 | 78 | 0.0 | 0.0 | 0.00 | 0.01 | 0.00 | 91 | 1012.0 | |
| 20260905080218 | 78 | 0.0 | 0.0 | 0.00 | 0.01 | 0.00 | 91 | 1012.1 | |
| 20260905075716 | 78 | 0.0 | 0.0 | 0.00 | 0.01 | 0.00 | 91 | 1012.1 | |
| 20260905075224 | 78 | 0.0 | 0.0 | 0.00 | 0.01 | 0.00 | 91 | 1012.1 | |
| 20260905074722 | 78 | 0.0 | 0.0 | 0.00 | 0.01 | 0.00 | 91 | 1012.1 | |
| 20260905074300 | 78 | 0.0 | 0.0 | 0.00 | 0.01 | 0.00 | 91 | 1012.1 | |
| 20260905073737 | 78 | 0.0 | 0.0 | 0.00 | 0.01 | 0.00 | 91 | 1012.2 | |
| 20260905073225 | 78 | 0.0 | 0.0 | 0.00 | 0.01 | 0.00 | 91 | 1012.1 | |
| 20260905072803 | 78 | 0.0 | 0.0 | 0.00 | 0.01 | 0.00 | 91 | 1012.1 | |
| 20260905072221 | 78 | 0.0 | 0.0 | 0.00 | 0.01 | 0.00 | 91 | 1012.1 | |
| 20260905071718 | 78 | 0.0 | 0.0 | 0.00 | 0.01 | 0.00 | 91 | 1012.0 | |
| 20260905071216 | 78 | 0.0 | 0.0 | 0.00 | 0.01 | 0.00 | 91 | 1012.2 | |
| 20260905070745 | 78 | 0.0 | 0.0 | 0.00 | 0.01 | 0.00 | 90 | 1012.1 | |
| 20260905070222 | 78 | 156 | 0.0 | 2.0 | 0.00 | 0.01 | 0.00 | 90 | 1012.3 |
| 20260905065720 | 78 | 0.0 | 0.0 | 0.00 | 0.01 | 0.00 | 90 | 1012.0 | |
| 20260905065258 | 78 | 0.0 | 0.0 | 0.00 | 0.01 | 0.00 | 90 | 1012.3 | |
| 20260905064715 | 79 | 0.0 | 0.0 | 0.00 | 0.01 | 0.00 | 90 | 1012.3 | |
| 20260905064305 | 79 | 0.0 | 0.0 | 0.00 | 0.01 | 0.00 | 90 | 1012.4 | |
| 20260905063721 | 79 | 0.0 | 0.0 | 0.00 | 0.01 | 0.00 | 90 | 1012.5 | |
| 20260905063258 | 79 | 0.0 | 0.0 | 0.00 | 0.01 | 0.00 | 90 | 1012.5 | |
| 20260905062716 | 79 | 0.0 | 0.0 | 0.00 | 0.01 | 0.00 | 90 | 1012.4 | |
| 20260905062306 | 79 | 0.0 | 0.0 | 0.00 | 0.01 | 0.00 | 90 | 1012.4 | |
| 20260905061722 | 79 | 0.0 | 0.0 | 0.00 | 0.01 | 0.00 | 89 | 1012.6 | |
| 20260905061220 | 79 | 0.0 | 0.0 | 0.00 | 0.01 | 0.00 | 89 | 1012.6 | |
| 20260905060759 | 79 | 0.0 | 0.0 | 0.00 | 0.01 | 0.00 | 89 | 1012.5 | |
| 20260905060215 | 79 | 0.0 | 0.0 | 0.00 | 0.01 | 0.00 | 89 | 1012.7 | |
| 20260905055743 | 79 | 0.0 | 0.0 | 0.00 | 0.01 | 0.00 | 89 | 1012.7 | |
| 20260905055221 | 79 | 0.0 | 0.0 | 0.00 | 0.01 | 0.00 | 89 | 1012.7 | |
| 20260905054719 | 79 | 0.0 | 0.0 | 0.00 | 0.01 | 0.00 | 89 | 1012.9 | |
| 20260905054217 | 80 | 0.0 | 0.0 | 0.00 | 0.01 | 0.00 | 89 | 1012.8 | |
| 20260905053724 | 80 | 0.0 | 0.0 | 0.00 | 0.01 | 0.00 | 89 | 1012.8 | |
| 20260905053222 | 80 | 0.0 | 0.0 | 0.00 | 0.01 | 0.00 | 90 | 1013.0 | |
| 20260905052720 | 80 | 0.0 | 0.0 | 0.00 | 0.01 | 0.00 | 90 | 1012.9 | |
| 20260905052220 | 80 | 0.0 | 0.0 | 0.00 | 0.01 | 0.00 | 90 | 1013.0 | |
| 20260905051736 | 80 | 0.0 | 0.0 | 0.00 | 0.01 | 0.00 | 90 | 1013.2 | |
| 20260905051226 | 80 | 0.0 | 0.0 | 0.00 | 0.01 | 0.00 | 91 | 1013.1 | |
| 20260905050721 | 80 | 0.0 | 0.0 | 0.00 | 0.01 | 0.00 | 91 | 1013.1 | |
| 20260905050239 | 80 | 0.0 | 0.0 | 0.00 | 0.01 | 0.00 | 90 | 1013.2 | |
| 20260905045740 | 80 | 0.0 | 0.0 | 0.00 | 0.01 | 0.00 | 90 | 1013.3 | |
| 20260905045224 | 80 | 0.0 | 0.0 | 0.00 | 0.01 | 0.00 | 90 | 1013.3 | |
| 20260905044722 | 81 | 0.0 | 0.0 | 0.00 | 0.01 | 0.00 | 89 | 1013.3 | |
| 20260905044220 | 81 | 0.0 | 0.0 | 0.00 | 0.01 | 0.00 | 89 | 1013.3 | |
| 20260905043717 | 81 | 0.0 | 0.0 | 0.00 | 0.01 | 0.00 | 89 | 1013.3 | |
| 20260905043227 | 81 | 0.0 | 0.0 | 0.00 | 0.01 | 0.00 | 89 | 1013.3 | |
| 20260905042723 | 81 | 0.0 | 0.0 | 0.00 | 0.01 | 0.00 | 89 | 1013.2 | |
| 20260905042221 | 81 | 0.0 | 0.0 | 0.00 | 0.01 | 0.00 | 89 | 1013.4 | |
| 20260905041739 | 81 | 0.0 | 0.0 | 0.00 | 0.01 | 0.00 | 89 | 1013.2 | |
| 20260905041216 | 81 | 0.0 | 0.0 | 0.00 | 0.01 | 0.00 | 89 | 1013.3 | |
| 20260905040724 | 81 | 0.0 | 0.0 | 0.00 | 0.01 | 0.00 | 89 | 1013.2 | |
| 20260905040222 | 82 | 0.0 | 0.0 | 0.00 | 0.01 | 0.00 | 90 | 1013.4 | |
| 20260905035720 | 82 | 0.0 | 0.0 | 0.00 | 0.01 | 0.01 | 90 | 1013.3 | |
| 20260905035217 | 82 | 0.0 | 0.0 | 0.00 | 0.01 | 0.01 | 89 | 1013.5 | |
| 20260905034745 | 82 | 0.0 | 0.0 | 0.00 | 0.01 | 0.01 | 89 | 1013.3 | |
| 20260905034223 | 82 | 0.0 | 0.0 | 0.00 | 0.01 | 0.01 | 89 | 1013.5 | |
| 20260905033741 | 82 | 0.0 | 0.0 | 0.00 | 0.01 | 0.01 | 89 | 1013.3 | |
| 20260905033218 | 82 | 0.0 | 0.0 | 0.00 | 0.01 | 0.01 | 88 | 1013.3 | |
| 20260905032736 | 82 | 0.0 | 0.0 | 0.00 | 0.01 | 0.01 | 87 | 1013.3 | |
| 20260905032223 | 82 | 0.0 | 0.0 | 0.00 | 0.01 | 0.01 | 87 | 1013.4 | |
| 20260905031721 | 82 | 0.0 | 0.0 | 0.00 | 0.01 | 0.01 | 87 | 1013.6 | |
| 20260905031219 | 82 | 0.0 | 0.0 | 0.00 | 0.01 | 0.01 | 87 | 1013.6 | |
| 20260905030717 | 83 | 0.0 | 0.0 | 0.00 | 0.01 | 0.01 | 87 | 1013.6 | |
| 20260905030225 | 83 | 0.0 | 0.0 | 0.00 | 0.01 | 0.01 | 87 | 1013.8 | |
| 20260905025723 | 83 | 0.0 | 0.0 | 0.00 | 0.01 | 0.01 | 86 | 1013.7 | |
| 20260905025220 | 83 | 0.0 | 0.0 | 0.00 | 0.01 | 0.01 | 86 | 1013.8 | |
| 20260905024718 | 83 | 0.0 | 0.0 | 0.00 | 0.01 | 0.01 | 86 | 1013.7 | |
| 20260905024216 | 83 | 0.0 | 0.0 | 0.00 | 0.01 | 0.01 | 85 | 1013.7 | |
| 20260905023724 | 83 | 0.0 | 0.0 | 0.00 | 0.01 | 0.01 | 85 | 1013.7 | |
| 20260905023221 | 83 | 0.0 | 0.0 | 0.00 | 0.01 | 0.01 | 85 | 1013.8 | |
| 20260905022719 | 83 | 0.0 | 0.0 | 0.00 | 0.01 | 0.01 | 85 | 1013.7 | |
| 20260905022217 | 83 | 0.0 | 0.0 | 0.00 | 0.01 | 0.01 | 84 | 1013.8 | |
| 20260905021725 | 83 | 0.0 | 0.0 | 0.00 | 0.01 | 0.01 | 84 | 1013.7 | |
| 20260905021223 | 83 | 0.0 | 0.0 | 0.00 | 0.01 | 0.01 | 84 | 1013.7 | |
| 20260905020720 | 83 | 0.0 | 0.0 | 0.00 | 0.01 | 0.01 | 84 | 1013.6 | |
| 20260905020238 | 83 | 0.0 | 0.0 | 0.00 | 0.01 | 0.01 | 84 | 1013.5 | |
| 20260905015716 | 83 | 0.0 | 0.0 | 0.00 | 0.01 | 0.01 | 84 | 1013.6 | |
| 20260905015223 | 83 | 0.0 | 0.0 | 0.00 | 0.01 | 0.01 | 84 | 1013.5 | |
| 20260905014741 | 83 | 0.0 | 0.0 | 0.00 | 0.01 | 0.01 | 83 | 1013.5 | |
| 20260905014300 | 84 | 0.0 | 0.0 | 0.00 | 0.01 | 0.01 | 82 | 1013.4 | |
| 20260905013717 | 84 | 0.0 | 0.0 | 0.00 | 0.01 | 0.01 | 82 | 1013.3 | |
| 20260905013224 | 85 | 0.0 | 0.0 | 0.00 | 0.01 | 0.01 | 81 | 1013.4 | |
| 20260905012722 | 85 | 0.0 | 0.0 | 0.00 | 0.01 | 0.01 | 80 | 1013.2 | |
| 20260905012220 | 85 | 0.0 | 0.0 | 0.00 | 0.01 | 0.01 | 80 | 1013.6 | |
| 20260905011718 | 85 | 0.0 | 0.0 | 0.00 | 0.01 | 0.01 | 80 | 1013.5 | |
| 20260905011245 | 85 | 0.0 | 0.0 | 0.00 | 0.01 | 0.01 | 80 | 1013.4 | |
| 20260905010723 | 85 | 0.0 | 0.0 | 0.00 | 0.01 | 0.01 | 80 | 1013.4 | |
| 20260905010221 | 85 | 0.0 | 0.0 | 0.00 | 0.01 | 0.01 | 79 | 1013.3 | |
| 20260905005718 | 85 | 0.0 | 0.0 | 0.00 | 0.01 | 0.01 | 79 | 1013.3 | |
| 20260905005236 | 85 | 0.0 | 0.0 | 0.00 | 0.01 | 0.01 | 79 | 1013.2 | |
| 20260905004744 | 85 | 0.0 | 0.0 | 0.00 | 0.01 | 0.01 | 79 | 1013.6 | |
| 20260905004221 | 85 | 0.0 | 0.0 | 0.00 | 0.01 | 0.01 | 79 | 1013.5 | |
| 20260905003719 | 86 | 0.0 | 0.0 | 0.00 | 0.01 | 0.01 | 78 | 1013.4 | |
| 20260905003217 | 86 | 0.0 | 0.0 | 0.00 | 0.01 | 0.01 | 78 | 1013.1 | |
| 20260905002725 | 86 | 0.0 | 0.0 | 0.00 | 0.01 | 0.01 | 78 | 1013.1 | |
| 20260905002223 | 86 | 0.0 | 0.0 | 0.00 | 0.01 | 0.01 | 77 | 1013.2 | |
| 20260905001720 | 86 | 0.0 | 0.0 | 0.00 | 0.01 | 0.01 | 77 | 1013.1 | |
| 20260905001218 | 86 | 0.0 | 0.0 | 0.00 | 0.01 | 0.01 | 77 | 1013.0 | |
| 20260905000716 | 86 | 0.0 | 0.0 | 0.00 | 0.01 | 0.01 | 77 | 1013.2 | |
| 20260905000226 | 86 | 0.0 | 0.0 | 0.00 | 0.01 | 0.01 | 77 | 1013.1 | |
| 20260904235722 | 87 | 0.0 | 0.0 | 0.00 | 0.01 | 0.01 | 76 | 1013.0 | |
| 20260904235219 | 87 | 0.0 | 0.0 | 0.00 | 0.01 | 0.01 | 76 | 1013.0 | |
| 20260904234717 | 87 | 0.0 | 0.0 | 0.00 | 0.01 | 0.01 | 76 | 1012.8 | |
| 20260904234224 | 87 | 0.0 | 0.0 | 0.00 | 0.01 | 0.01 | 75 | 1012.9 | |
| 20260904233722 | 88 | 0.0 | 0.0 | 0.00 | 0.01 | 0.01 | 74 | 1012.8 | |
| 20260904233220 | 88 | 264 | 0.0 | 1.0 | 0.00 | 0.01 | 0.01 | 73 | 1012.7 |
| 20260904232738 | 89 | 0.0 | 0.0 | 0.00 | 0.01 | 0.01 | 72 | 1012.6 | |
| 20260904232215 | 89 | 240 | 0.0 | 1.0 | 0.00 | 0.01 | 0.01 | 72 | 1012.6 |
| 20260904231723 | 89 | 288 | 1.0 | 4.0 | 0.00 | 0.01 | 0.01 | 71 | 1012.5 |
| 20260904231221 | 90 | 232 | 1.0 | 7.0 | 0.00 | 0.01 | 0.01 | 70 | 1012.4 |
| 20260904230718 | 90 | 250 | 0.0 | 1.0 | 0.00 | 0.01 | 0.01 | 67 | 1012.4 |
| 20260904230216 | 91 | 243 | 3.0 | 10.0 | 0.00 | 0.01 | 0.01 | 67 | 1012.2 |
| 20260904225724 | 91 | 253 | 4.0 | 9.0 | 0.00 | 0.01 | 0.01 | 68 | 1012.3 |
| 20260904225305 | 90 | 259 | 1.0 | 4.0 | 0.00 | 0.01 | 0.01 | 68 | 1012.1 |
| 20260904224740 | 90 | 269 | 0.0 | 2.0 | 0.00 | 0.01 | 0.01 | 70 | 1012.1 |
| 20260904224218 | 89 | 245 | 0.0 | 2.0 | 0.00 | 0.01 | 0.01 | 70 | 1012.0 |
| 20260904223715 | 89 | 266 | 3.0 | 7.0 | 0.00 | 0.01 | 0.01 | 70 | 1012.3 |
| 20260904223223 | 90 | 248 | 1.0 | 6.0 | 0.00 | 0.03 | 0.01 | 69 | 1012.4 |
| 20260904222721 | 90 | 236 | 4.0 | 6.0 | 0.00 | 0.03 | 0.01 | 69 | 1012.2 |
| 20260904222239 | 91 | 252 | 5.0 | 10.0 | 0.00 | 0.03 | 0.01 | 68 | 1012.1 |
| 20260904221736 | 91 | 0.0 | 0.0 | 0.00 | 0.03 | 0.01 | 67 | 1012.1 | |
| 20260904221224 | 91 | 250 | 0.0 | 3.0 | 0.00 | 0.03 | 0.01 | 66 | 1012.0 |
| 20260904220722 | 92 | 255 | 3.0 | 8.0 | 0.00 | 0.03 | 0.01 | 65 | 1011.9 |
| 20260904220220 | 92 | 239 | 3.0 | 7.0 | 0.00 | 0.03 | 0.01 | 66 | 1011.9 |
| 20260904215717 | 92 | 264 | 1.0 | 6.0 | 0.00 | 0.03 | 0.01 | 66 | 1011.8 |
| 20260904215225 | 92 | 251 | 4.0 | 11.0 | 0.00 | 0.03 | 0.01 | 65 | 1012.1 |
| 20260904214745 | 93 | 253 | 4.0 | 8.0 | 0.00 | 0.03 | 0.01 | 64 | 1012.1 |
| 20260904214220 | 93 | 233 | 5.0 | 13.0 | 0.00 | 0.03 | 0.01 | 66 | 1012.1 |
| 20260904213718 | 92 | 265 | 1.0 | 6.0 | 0.00 | 0.03 | 0.01 | 66 | 1012.1 |
| 20260904213216 | 92 | 259 | 6.0 | 11.0 | 0.00 | 0.03 | 0.01 | 65 | 1012.2 |
| 20260904212744 | 92 | 261 | 5.0 | 8.0 | 0.00 | 0.03 | 0.01 | 65 | 1012.1 |
| 20260904212221 | 92 | 257 | 5.0 | 9.0 | 0.00 | 0.03 | 0.01 | 65 | 1011.9 |
| 20260904211719 | 93 | 229 | 1.0 | 4.0 | 0.00 | 0.03 | 0.01 | 65 | 1012.0 |
| 20260904211217 | 93 | 235 | 7.0 | 11.0 | 0.00 | 0.03 | 0.01 | 64 | 1011.9 |
| 20260904210745 | 93 | 242 | 4.0 | 11.0 | 0.00 | 0.03 | 0.01 | 65 | 1011.8 |
| 20260904210223 | 92 | 253 | 1.0 | 7.0 | 0.00 | 0.03 | 0.01 | 64 | 1011.9 |
| 20260904205720 | 92 | 245 | 4.0 | 11.0 | 0.00 | 0.03 | 0.01 | 66 | 1011.7 |
| 20260904205240 | 92 | 258 | 3.0 | 6.0 | 0.00 | 0.03 | 0.01 | 66 | 1011.8 |
| 20260904204715 | 92 | 238 | 7.0 | 10.0 | 0.00 | 0.03 | 0.01 | 66 | 1011.7 |
| 20260904204223 | 92 | 224 | 2.0 | 4.0 | 0.00 | 0.03 | 0.01 | 65 | 1011.9 |
| 20260904203721 | 92 | 260 | 7.0 | 11.0 | 0.00 | 0.03 | 0.01 | 66 | 1011.8 |
| 20260904203219 | 92 | 242 | 3.0 | 11.0 | 0.00 | 0.03 | 0.01 | 66 | 1012.1 |
| 20260904202716 | 92 | 333 | 1.0 | 4.0 | 0.00 | 0.03 | 0.01 | 67 | 1012.1 |
| 20260904202224 | 92 | 246 | 5.0 | 9.0 | 0.00 | 0.03 | 0.01 | 66 | 1012.1 |
| 20260904201745 | 92 | 245 | 4.0 | 9.0 | 0.00 | 0.03 | 0.01 | 66 | 1012.3 |
| 20260904201240 | 92 | 219 | 5.0 | 9.0 | 0.00 | 0.03 | 0.01 | 66 | 1012.3 |
| 20260904200718 | 93 | 235 | 5.0 | 11.0 | 0.00 | 0.03 | 0.01 | 67 | 1012.3 |
| 20260904200216 | 92 | 254 | 2.0 | 6.0 | 0.00 | 0.03 | 0.01 | 65 | 1012.2 |
| 20260904195724 | 92 | 240 | 6.0 | 10.0 | 0.00 | 0.03 | 0.01 | 67 | 1012.4 |
| 20260904195241 | 92 | 242 | 3.0 | 10.0 | 0.00 | 0.03 | 0.01 | 67 | 1012.4 |
| 20260904194719 | 92 | 0.0 | 0.0 | 0.00 | 0.03 | 0.01 | 68 | 1012.4 | |
| 20260904194237 | 92 | 243 | 7.0 | 15.0 | 0.00 | 0.03 | 0.01 | 66 | 1012.3 |
| 20260904193725 | 92 | 243 | 1.0 | 6.0 | 0.00 | 0.03 | 0.01 | 67 | 1012.4 |
| 20260904193223 | 92 | 225 | 4.0 | 8.0 | 0.00 | 0.03 | 0.01 | 67 | 1012.4 |
| 20260904192720 | 92 | 267 | 1.0 | 6.0 | 0.00 | 0.03 | 0.01 | 68 | 1012.4 |
| 20260904192218 | 91 | 249 | 2.0 | 7.0 | 0.00 | 0.03 | 0.01 | 68 | 1012.7 |
| 20260904191716 | 91 | 271 | 5.0 | 9.0 | 0.00 | 0.03 | 0.01 | 67 | 1012.8 |
| 20260904191224 | 92 | 257 | 4.0 | 9.0 | 0.00 | 0.03 | 0.01 | 66 | 1012.7 |
| 20260904190721 | 92 | 231 | 1.0 | 2.0 | 0.00 | 0.03 | 0.01 | 66 | 1013.0 |
| 20260904190219 | 93 | 234 | 2.0 | 7.0 | 0.00 | 0.03 | 0.01 | 67 | 1013.0 |
| 20260904185737 | 93 | 0.0 | 0.0 | 0.00 | 0.03 | 0.01 | 65 | 1013.0 | |
| 20260904185225 | 93 | 254 | 2.0 | 8.0 | 0.00 | 0.03 | 0.01 | 67 | 1013.2 |
| 20260904184723 | 92 | 246 | 1.0 | 4.0 | 0.00 | 0.03 | 0.01 | 66 | 1013.1 |